Torna al catalogo

CZ-4 DEB

AttivoSSO
NORAD 35322·DEBRIS·🇨🇳 China

Lanciato Oct 14, 1999 da Taiyuan Satellite Launch Center

Loading…

Prossimi Passaggi (prossime 24 ore)

TLE

AggiornatoSource: Space-Track

Epoca: Sep 13, 2026, 09:04 UTC

1 35322U 99057SA  26256.37819903  .00000308  00000-0  15378-3 0  9994
2 35322  99.0748 306.5219 0195791 203.2036 156.0206 14.14658006683640

Traccia CZ-4 DEB in tempo reale con AllMySat

Download on the App Store